ONEWEB-0027, 45432

Orbit data source: Space-Track

ONEWEB-0027, 45432 is a payload satellite owned by One Web (UK) in LEO that was launched on Sat, 21 Mar 2020 UTC via a SOYUZ-2-1B launch vehicle from the Tyuratam Missile And Space Complex (TTMTR). Payload-class satellites include a variety of spacecraft equipped with specific instruments for various scientific and technological missions. These include communications satellites like Starlink; space stations such as the ISS; scientific satellites like the Hubble; Earth observation satellites from companies like Planet Labs, Umbra, and HawkEye 360; GPS; miniature CubeSats for education and research; and military/defense satellites.

Loading next visibility...
Identifier
45432, 2020-020J
Orbit
LEO
Country
Flag of UKUK
Related business
Manufacturer
One Web
Mission
Operational Commercial Communications
Bus & Motor
ARROW, Unknown motor
Mass
148 kg wet, ~140 kg dry
Launch date (UTC)
2020-03-21 (6 years ago)
Launch vehicle
SOYUZ-2-1B
Launch site
Tyuratam Missile And Space Complex (TTMTR)
Object type
Payload
Rocket body
Debris
Shape & HBR
Trap Box + 2 Pan, 6.7 m
Radar Cross Section
3.464 m², Large (>1 m²)

Expand to show TLE details & history
Last TLE update: 23 hours ago

TLE from 23 hours ago
0 ONEWEB-0027
1 45432U 20020J   26034.50634259 -.00000003  00000-0 -40196-4 0  9990
2 45432  87.9101  32.3997 0002022  99.5653 260.5707 13.17650290288753
Epoch: 2026-02-03T12:09Z
TLE epoch observation values (Epoch: 2026-02-03T12:09:07.999Z)
Latitude
-0.00004°
Longitude
76.43007°
Altitude
1,196.858 km
Speed
7.255 km/s
True Right ascension
02h 09m 35s
True Declination
0° 00' 00"
Sunlit
Object was in daylight at epoch
Visualization orbit readout
Latitude
Unknown
Longitude
Unknown
Altitude
Unknown
Speed
Unknown
Apparent Right ascension
Unknown
Apparent Declination
Unknown
Sunlit
N/A
Visualization observer readout
Local Sidereal Time
12:44:58
Azimuth
Unknown
Elevation
Unknown
Doppler factor
Unknown
Orbital elements
Apogee altitude
1,192.348 km
Perigee altitude
1,189.287 km
Semi-major axis
7,568.954 km
Eccentricity
0.0002
Inclination
87.9101°
RAAN
32.3997°
Arg. of periapsis
99.5653°
True anomaly
260.54784°
Mean anomaly
260.5707°
Eccentric anomaly
260.55927°
Mean motion
3.29602 °/min
Orbital period
109.22 mins
BSTAR
-0.000040196
Loading maneuver chart data...
Computing Atmospheric mass density...
Loading historical data...
Loading historical data...
Loading historical data...
Loading historical data...
Loading historical data...
Loading historical data...
Loading historical data...

Documentation

Showing up to 5 results
|